Volver al catálogo

STARLINK-37030

ActivoComunicacionesSSO
NORAD 68220·PAYLOAD·🇺🇸 United States

Lanzado Mar 17, 2026 desde Vandenberg Space Force Base

Loading…

Próximos Pases (próximas 24 horas)

TLE

ActualizadoSource: CelesTrak SupGP

Época: Sep 15, 2026, 03:46 UTC

1 68220C 26053P   26258.15743056  .00013955  00000+0  43368-3 0  2585
2 68220  97.2848 132.0185 0001641  98.3334 320.8987 15.33396835    14

Sigue STARLINK-37030 en tiempo real con AllMySat

Download on the App Store